IT9KWW-13 Weather Reports


time (UTC)temp
F
wind
direction
speed
knots
gust
knots
rain 1hr
in
rain 24hr
in
rain mn
in
humidity
%
barometer
mb
20260906095731 93 68 1.7 1.7 0.00 0.00 0.00 36 1015.9
20260906095531 93 68 7.0 7.0 0.00 0.00 0.00 37 1015.9
20260906095331 93 68 7.0 7.8 0.00 0.00 0.00 36 1015.9
20260906095121 93 90 4.3 4.3 0.00 0.00 0.00 37 1015.9
20260906094907 93 68 5.2 6.1 0.00 0.00 0.00 37 1015.9
20260906094707 93 68 7.0 7.8 0.00 0.00 0.00 37 1015.9
20260906094455 93 90 6.1 7.0 0.00 0.00 0.00 37 1015.9
20260906094255 93 22 6.1 7.0 0.00 0.00 0.00 37 1015.9
20260906094055 93 22 4.3 4.3 0.00 0.00 0.00 37 1015.9
20260906093843 92 90 2.6 2.6 0.00 0.00 0.00 37 1015.9
20260906093643 92 22 7.8 7.8 0.00 0.00 0.00 39 1015.9
20260906093443 92 68 3.5 3.5 0.00 0.00 0.00 38 1015.9
20260906093231 92 90 3.5 4.3 0.00 0.00 0.00 38 1015.9
20260906093031 93 68 6.1 7.0 0.00 0.00 0.00 38 1015.9
20260906092831 93 68 5.2 5.2 0.00 0.00 0.00 37 1015.9
20260906092619 93 45 7.0 7.0 0.00 0.00 0.00 38 1015.9
20260906092419 92 90 4.3 5.2 0.00 0.00 0.00 38 1015.9
20260906092219 92 22 6.1 6.1 0.00 0.00 0.00 37 1015.9
20260906092007 92 68 5.2 5.2 0.00 0.00 0.00 37 1015.9
20260906091807 92 68 6.1 7.0 0.00 0.00 0.00 38 1016.9
20260906091607 92 68 6.1 6.1 0.00 0.00 0.00 38 1016.9
20260906091357 92 90 7.0 7.0 0.00 0.00 0.00 38 1016.9
20260906091155 92 45 5.2 5.2 0.00 0.00 0.00 39 1016.9
20260906090955 92 68 7.0 7.0 0.00 0.00 0.00 38 1016.9
20260906090745 92 68 7.0 7.0 0.00 0.00 0.00 39 1016.9
20260906090543 92 22 7.0 7.0 0.00 0.00 0.00 39 1016.9
20260906090343 93 68 5.2 5.2 0.00 0.00 0.00 39 1016.9
20260906090131 93 90 6.1 6.1 0.00 0.00 0.00 38 1016.9
20260906085931 93 68 5.2 5.2 0.00 0.00 0.00 38 1015.9
20260906085731 93 90 3.5 3.5 0.00 0.00 0.00 37 1015.9
20260906085519 93 112 4.3 4.3 0.00 0.00 0.00 38 1015.9
20260906085320 93 45 7.0 7.8 0.00 0.00 0.00 37 1015.9
20260906085119 93 22 6.1 6.1 0.00 0.00 0.00 36 1015.9
20260906084907 93 68 1.7 1.7 0.00 0.00 0.00 36 1015.9
20260906084655 93 68 6.1 6.1 0.00 0.00 0.00 36 1015.9
20260906084455 93 22 4.3 4.3 0.00 0.00 0.00 37 1015.9
20260906084243 93 45 3.5 3.5 0.00 0.00 0.00 37 1015.9
20260906084043 93 68 1.7 1.7 0.00 0.00 0.00 36 1015.9
20260906083843 93 68 5.2 5.2 0.00 0.00 0.00 34 1015.9
20260906083633 92 68 1.7 1.7 0.00 0.00 0.00 37 1015.9
20260906083431 92 68 3.5 3.5 0.00 0.00 0.00 35 1015.9
20260906083231 92 45 5.2 5.2 0.00 0.00 0.00 36 1015.9
20260906083019 92 68 4.3 4.3 0.00 0.00 0.00 36 1015.9
20260906082819 92 68 2.6 2.6 0.00 0.00 0.00 36 1015.9
20260906082619 92 112 4.3 4.3 0.00 0.00 0.00 35 1015.9
20260906082407 92 90 5.2 5.2 0.00 0.00 0.00 36 1015.9
20260906082207 92 90 3.5 4.3 0.00 0.00 0.00 37 1015.9
20260906082006 92 112 6.1 6.1 0.00 0.00 0.00 36 1015.9
20260906081755 92 90 4.3 4.3 0.00 0.00 0.00 36 1015.9
20260906081555 92 45 1.7 1.7 0.00 0.00 0.00 36 1015.9
20260906081354 92 68 7.0 7.0 0.00 0.00 0.00 36 1015.9
20260906081143 92 68 2.6 2.6 0.00 0.00 0.00 36 1015.9
20260906080931 92 68 4.3 4.3 0.00 0.00 0.00 36 1015.9
20260906080730 92 90 6.1 7.0 0.00 0.00 0.00 36 1015.9
20260906080519 92 68 4.3 4.3 0.00 0.00 0.00 37 1015.9
20260906080319 92 112 4.3 4.3 0.00 0.00 0.00 36 1015.9
20260906080119 92 90 4.3 4.3 0.00 0.00 0.00 37 1015.9
20260906075907 92 90 5.2 6.1 0.00 0.00 0.00 37 1015.9
20260906075707 92 68 2.6 2.6 0.00 0.00 0.00 37 1015.9
20260906075507 92 68 6.1 6.1 0.00 0.00 0.00 37 1015.9
20260906075255 92 68 7.0 7.0 0.00 0.00 0.00 36 1015.9
20260906075054 92 90 3.5 3.5 0.00 0.00 0.00 36 1015.9
20260906074855 92 90 5.2 5.2 0.00 0.00 0.00 37 1015.9
20260906074643 92 68 6.1 6.1 0.00 0.00 0.00 36 1015.9
20260906074443 92 68 4.3 4.3 0.00 0.00 0.00 36 1015.9
20260906074243 91 68 3.5 3.5 0.00 0.00 0.00 35 1015.9
20260906074031 91 68 2.6 2.6 0.00 0.00 0.00 35 1015.9
20260906073831 91 68 4.3 4.3 0.00 0.00 0.00 35 1015.9
20260906073631 91 22 4.3 4.3 0.00 0.00 0.00 35 1015.9
20260906073419 91 45 2.6 2.6 0.00 0.00 0.00 35 1015.9
20260906073219 91 22 5.2 6.1 0.00 0.00 0.00 36 1015.9
20260906073018 91 22 4.3 4.3 0.00 0.00 0.00 36 1015.9
20260906072807 91 45 5.2 5.2 0.00 0.00 0.00 37 1015.9
20260906072607 91 22 4.3 4.3 0.00 0.00 0.00 37 1015.9
20260906072406 91 22 4.3 4.3 0.00 0.00 0.00 37 1015.9
20260906072144 91 68 1.7 1.7 0.00 0.00 0.00 38 1015.9
20260906071943 91 68 2.6 2.6 0.00 0.00 0.00 39 1015.9
20260906071742 91 68 1.7 1.7 0.00 0.00 0.00 42 1015.9
20260906071536 91 68 1.7 1.7 0.00 0.00 0.00 40 1015.9
20260906071331 91 68 2.6 2.6 0.00 0.00 0.00 41 1015.9
20260906071130 91 158 1.7 1.7 0.00 0.00 0.00 41 1015.9
20260906070919 91 158 1.7 1.7 0.00 0.00 0.00 41 1015.9
20260906070719 92 158 3.5 3.5 0.00 0.00 0.00 41 1015.9
20260906070518 92 158 2.6 2.6 0.00 0.00 0.00 41 1015.9
20260906070307 91 90 1.7 1.7 0.00 0.00 0.00 42 1015.9
20260906070106 91 68 3.5 4.3 0.00 0.00 0.00 40 1015.9
20260906065907 92 68 6.1 7.0 0.00 0.00 0.00 38 1015.9
20260906065655 91 112 0.9 0.9 0.00 0.00 0.00 39 1015.9
20260906065454 91 112 1.7 1.7 0.00 0.00 0.00 41 1015.9
20260906065255 91 112 0.0 0.0 0.00 0.00 0.00 42 1015.9
20260906065043 90 112 1.7 1.7 0.00 0.00 0.00 43 1015.9
20260906064842 90 112 1.7 1.7 0.00 0.00 0.00 42 1015.9
20260906064642 90 112 1.7 1.7 0.00 0.00 0.00 41 1015.9
20260906064431 89 292 0.9 0.9 0.00 0.00 0.00 40 1015.9
20260906064218 88 292 0.0 0.0 0.00 0.00 0.00 44 1015.9
20260906064006 87 292 0.0 0.0 0.00 0.00 0.00 45 1015.9
20260906063755 87 292 1.7 1.7 0.00 0.00 0.00 46 1015.9
20260906063554 86 292 0.0 0.0 0.00 0.00 0.00 48 1015.9
20260906063354 85 292 1.7 1.7 0.00 0.00 0.00 47 1015.9
20260906063143 85 292 0.0 0.0 0.00 0.00 0.00 48 1015.9
20260906062942 84 292 0.9 0.9 0.00 0.00 0.00 49 1015.9
20260906062730 84 292 1.7 1.7 0.00 0.00 0.00 50 1015.9
20260906062519 83 292 0.0 0.0 0.00 0.00 0.00 51 1015.9
20260906062318 83 292 2.6 2.6 0.00 0.00 0.00 52
20260906062119 82 292 1.7 1.7 0.00 0.00 0.00 51
20260906061941 82 315 0.9 0.9 0.00 0.00 0.00 52
20260906061642 81 315 1.7 1.7 0.00 0.00 0.00 53 1015.9
20260906061442 81 315 1.7 1.7 0.00 0.00 0.00 54 1015.9
20260906061231 80 315 1.7 1.7 0.00 0.00 0.00 55 1015.9
20260906061030 80 338 2.6 2.6 0.00 0.00 0.00 54 1015.9
20260906060830 80 338 4.3 4.3 0.00 0.00 0.00 54 1015.9
20260906060619 80 338 1.7 1.7 0.00 0.00 0.00 55 1015.9
20260906060418 80 338 3.5 4.3 0.00 0.00 0.00 55 1014.9
20260906060218 80 338 1.7 1.7 0.00 0.00 0.00 55 1014.9
20260906060007 80 338 4.3 4.3 0.00 0.00 0.00 55 1014.9
20260906055807 79 315 4.3 4.3 0.00 0.00 0.00 55 1014.9
20260906055606 79 338 2.6 2.6 0.00 0.00 0.00 56 1014.9
20260906055355 79 315 2.6 2.6 0.00 0.00 0.00 56 1014.9
20260906055155 79 315 4.3 5.2 0.00 0.00 0.00 55 1014.9
20260906054954 79 292 2.6 2.6 0.00 0.00 0.00 56 1014.9
20260906054743 78 338 2.6 2.6 0.00 0.00 0.00 56 1014.9
20260906054542 78 292 0.9 0.9 0.00 0.00 0.00 57 1014.9
20260906054342 77 292 0.0 0.0 0.00 0.00 0.00 58 1014.9
20260906054131 77 292 1.7 1.7 0.00 0.00 0.00 58 1014.9
20260906053930 76 315 1.7 1.7 0.00 0.00 0.00 58 1014.9
20260906053730 76 315 2.6 2.6 0.00 0.00 0.00 59 1014.9
20260906053519 76 292 3.5 3.5 0.00 0.00 0.00 59 1014.9
20260906053318 76 292 2.6 3.5 0.00 0.00 0.00 60 1014.9
20260906053118 75 292 2.6 2.6 0.00 0.00 0.00 60 1014.9
20260906052907 75 292 1.7 1.7 0.00 0.00 0.00 61 1014.9
20260906052706 75 270 1.7 1.7 0.00 0.00 0.00 61 1014.9
20260906052506 75 292 2.6 3.5 0.00 0.00 0.00 61 1014.9
20260906052255 75 292 2.6 2.6 0.00 0.00 0.00 61 1014.9
20260906052054 75 292 2.6 3.5 0.00 0.00 0.00 61 1014.9
20260906051854 75 292 1.7 1.7 0.00 0.00 0.00 61 1014.9
20260906051643 74 338 2.6 2.6 0.00 0.00 0.00 61 1014.9
20260906051430 74 292 2.6 2.6 0.00 0.00 0.00 61 1014.9
20260906051230 74 270 4.3 4.3 0.00 0.00 0.00 61 1014.9
20260906051019 74 270 4.3 4.3 0.00 0.00 0.00 62 1014.9
20260906050818 74 315 4.3 4.3 0.00 0.00 0.00 62 1014.9
20260906050618 74 315 2.6 2.6 0.00 0.00 0.00 62 1014.9
20260906050407 74 292 2.6 2.6 0.00 0.00 0.00 62 1014.9
20260906050156 74 292 1.7 1.7 0.00 0.00 0.00 62 1014.9
20260906045954 74 292 2.6 2.6 0.00 0.00 0.00 61 1014.9
20260906045743 74 315 1.7 1.7 0.00 0.00 0.00 61 1014.9
20260906045542 74 292 4.3 4.3 0.00 0.00 0.00 61 1014.9
20260906045330 74 292 4.3 4.3 0.00 0.00 0.00 62 1014.9
20260906045119 74 292 5.2 5.2 0.00 0.00 0.00 61 1014.9
20260906044906 74 338 5.2 5.2 0.00 0.00 0.00 62 1014.9
20260906044706 74 315 4.3 4.3 0.00 0.00 0.00 62 1014.9
20260906044455 73 338 3.5 3.5 0.00 0.00 0.00 62 1014.9
20260906044254 73 315 4.3 4.3 0.00 0.00 0.00 62 1014.9
20260906044054 73 315 4.3 4.3 0.00 0.00 0.00 62 1014.9
20260906043843 73 315 1.7 1.7 0.00 0.00 0.00 62 1014.9
20260906043644 73 292 3.5 3.5 0.00 0.00 0.00 62 1014.9
20260906043442 73 315 3.5 4.3 0.00 0.00 0.00 62 1014.9
20260906043231 73 315 4.3 4.3 0.00 0.00 0.00 62 1014.9
20260906043030 73 292 2.6 2.6 0.00 0.00 0.00 63 1014.9
20260906042830 73 315 1.7 1.7 0.00 0.00 0.00 63 1014.9
20260906042619 73 292 2.6 2.6 0.00 0.00 0.00 63 1014.9
20260906042418 73 292 3.5 3.5 0.00 0.00 0.00 63 1014.9
20260906042219 73 292 3.5 4.3 0.00 0.00 0.00 63 1014.9
20260906042007 73 315 1.7 1.7 0.00 0.00 0.00 63 1014.9
20260906041806 73 315 1.7 1.7 0.00 0.00 0.00 63 1014.9
20260906041606 73 315 1.7 1.7 0.00 0.00 0.00 62 1014.9
20260906041355 73 315 1.7 1.7 0.00 0.00 0.00 61 1014.9
20260906041154 73 315 1.7 1.7 0.00 0.00 0.00 61 1014.9
20260906040954 73 315 1.7 1.7 0.00 0.00 0.00 61 1014.9
20260906040743 73 315 2.6 2.6 0.00 0.00 0.00 61 1014.9
20260906040543 73 315 1.7 1.7 0.00 0.00 0.00 61 1014.9
20260906040342 73 292 2.6 2.6 0.00 0.00 0.00 60 1014.9
20260906040131 73 292 1.7 1.7 0.00 0.00 0.00 60 1014.9
20260906035930 72 292 1.7 1.7 0.00 0.00 0.00 61 1014.9
20260906035730 72 292 2.6 2.6 0.00 0.00 0.00 61 1014.9
20260906035519 72 292 4.3 4.3 0.00 0.00 0.00 62 1014.9
20260906035318 72 270 3.5 3.5 0.00 0.00 0.00 63 1014.9
20260906035118 72 292 3.5 3.5 0.00 0.00 0.00 63 1014.9
20260906034907 72 292 1.7 1.7 0.00 0.00 0.00 63 1014.9
20260906034706 72 292 2.6 2.6 0.00 0.00 0.00 63 1014.9
20260906034506 72 292 3.5 3.5 0.00 0.00 0.00 63 1014.9
20260906034255 72 292 1.7 1.7 0.00 0.00 0.00 63 1014.9
20260906034054 72 292 3.5 4.3 0.00 0.00 0.00 63 1014.9
20260906033854 72 292 1.7 1.7 0.00 0.00 0.00 63 1014.9
20260906033643 72 292 1.7 1.7 0.00 0.00 0.00 63 1014.9
20260906033442 72 292 1.7 1.7 0.00 0.00 0.00 63 1014.9
20260906033242 72 292 2.6 2.6 0.00 0.00 0.00 63 1014.9
20260906033031 72 292 1.7 1.7 0.00 0.00 0.00 63 1014.9
20260906032830 72 292 1.7 1.7 0.00 0.00 0.00 63 1014.9
20260906032630 72 292 2.6 2.6 0.00 0.00 0.00 63 1014.9
20260906032419 72 292 2.6 2.6 0.00 0.00 0.00 62 1014.9
20260906032218 72 292 0.9 0.9 0.00 0.00 0.00 62 1014.9
20260906032018 73 292 1.7 1.7 0.00 0.00 0.00 62 1014.9
20260906031807 73 292 1.7 1.7 0.00 0.00 0.00 62 1014.9
20260906031606 73 292 2.6 3.5 0.00 0.00 0.00 62 1014.9
20260906031406 73 292 1.7 1.7 0.00 0.00 0.00 61 1014.9
20260906031155 73 292 1.7 1.7 0.00 0.00 0.00 61 1014.9
20260906030954 73 292 1.7 1.7 0.00 0.00 0.00 61 1014.9
20260906030754 73 292 1.7 1.7 0.00 0.00 0.00 60 1014.9
20260906030554 73 292 2.6 2.6 0.00 0.00 0.00 60 1014.9
20260906025919 74 292 3.5 3.5 0.00 0.00 0.00 59 1014.9
20260906025718 74 315 5.2 5.2 0.00 0.00 0.00 59 1014.9
20260906025518 74 292 1.7 1.7 0.00 0.00 0.00 60 1014.9
20260906025307 74 292 3.5 4.3 0.00 0.00 0.00 59 1014.9
20260906025106 74 292 2.6 2.6 0.00 0.00 0.00 59 1014.9
20260906024906 74 292 2.6 2.6 0.00 0.00 0.00 59 1014.9
20260906024655 74 315 4.3 4.3 0.00 0.00 0.00 59 1014.9
20260906024454 74 292 5.2 5.2 0.00 0.00 0.00 59 1014.9
20260906024254 73 315 4.3 4.3 0.00 0.00 0.00 59 1014.9
20260906024043 73 315 1.7 1.7 0.00 0.00 0.00 59 1014.9
20260906023842 73 292 4.3 4.3 0.00 0.00 0.00 59 1014.9
20260906023642 73 292 4.3 4.3 0.00 0.00 0.00 59 1014.9
20260906023432 73 292 1.7 1.7 0.00 0.00 0.00 59 1014.9
20260906023230 74 292 4.3 4.3 0.00 0.00 0.00 59 1014.9
20260906023030 74 292 1.7 1.7 0.00 0.00 0.00 59 1014.9
20260906022819 74 315 1.7 1.7 0.00 0.00 0.00 58 1014.9
20260906022618 74 315 2.6 3.5 0.00 0.00 0.00 58 1014.9
20260906022418 74 315 2.6 2.6 0.00 0.00 0.00 58 1014.9
20260906022155 74 315 1.7 1.7 0.00 0.00 0.00 58 1014.9
20260906021954 74 315 1.7 1.7 0.00 0.00 0.00 58 1014.9
20260906021754 74 292 1.7 1.7 0.00 0.00 0.00 58 1014.9
20260906021543 74 292 1.7 1.7 0.00 0.00 0.00 58 1014.9
20260906021342 74 292 3.5 3.5 0.00 0.00 0.00 58 1014.9
20260906021142 74 292 2.6 2.6 0.00 0.00 0.00 58 1014.9
20260906020931 74 292 1.7 1.7 0.00 0.00 0.00 58 1014.9
20260906020730 74 292 1.7 1.7 0.00 0.00 0.00 57 1014.9
20260906020530 74 292 2.6 3.5 0.00 0.00 0.00 57 1014.9
20260906020321 74 292 1.7 1.7 0.00 0.00 0.00 57 1014.9
20260906020118 74 292 1.7 1.7 0.00 0.00 0.00 57 1014.9
20260906015918 74 270 2.6 2.6 0.00 0.00 0.00 57 1014.9
20260906015707 74 292 1.7 1.7 0.00 0.00 0.00 57 1014.9
20260906015506 74 292 2.6 2.6 0.00 0.00 0.00 57 1014.9
20260906015306 75 292 1.7 1.7 0.00 0.00 0.00 57 1014.9
20260906015055 75 292 2.6 2.6 0.00 0.00 0.00 56 1014.9
20260906014854 75 292 1.7 1.7 0.00 0.00 0.00 56 1014.9
20260906014654 75 292 2.6 2.6 0.00 0.00 0.00 56 1014.9
20260906014443 75 292 2.6 2.6 0.00 0.00 0.00 56 1014.9
20260906014242 75 292 2.6 2.6 0.00 0.00 0.00 55 1014.9
20260906014042 75 292 2.6 3.5 0.00 0.00 0.00 55 1014.9
20260906013831 75 292 1.7 1.7 0.00 0.00 0.00 55 1014.9
20260906013630 75 292 2.6 3.5 0.00 0.00 0.00 55 1014.9
20260906013418 75 292 2.6 2.6 0.00 0.00 0.00 55 1014.9
20260906013155 75 292 2.6 2.6 0.00 0.00 0.00 55 1014.9
20260906012942 75 292 2.6 2.6 0.00 0.00 0.00 55 1014.9
20260906012742 75 292 3.5 3.5 0.00 0.00 0.00 55 1014.9
20260906012531 75 292 4.3 4.3 0.00 0.00 0.00 55 1014.9
20260906012330 75 338 3.5 4.3 0.00 0.00 0.00 55 1014.9
20260906012130 75 292 1.7 1.7 0.00 0.00 0.00 55 1014.9
20260906011919 75 315 4.3 4.3 0.00 0.00 0.00 55 1014.9
20260906011718 75 292 2.6 3.5 0.00 0.00 0.00 55 1014.9
20260906011518 75 315 1.7 1.7 0.00 0.00 0.00 55 1014.9
20260906011307 75 292 3.5 4.3 0.00 0.00 0.00 55 1014.9
20260906011106 75 270 3.5 3.5 0.00 0.00 0.00 55 1014.9
20260906010906 75 292 4.3 4.3 0.00 0.00 0.00 55 1014.9
20260906010707 75 292 1.7 1.7 0.00 0.00 0.00 55 1014.9
20260906010454 75 292 2.6 2.6 0.00 0.00 0.00 55 1014.9
20260906010254 75 315 4.3 4.3 0.00 0.00 0.00 55 1014.9
20260906010043 75 292 2.6 3.5 0.00 0.00 0.00 56 1014.9
20260906005842 75 292 4.3 4.3 0.00 0.00 0.00 56 1014.9
20260906005642 75 292 4.3 4.3 0.00 0.00 0.00 57 1014.9
20260906005431 75 292 2.6 2.6 0.00 0.00 0.00 57 1014.9
20260906005230 75 292 2.6 3.5 0.00 0.00 0.00 57 1014.9
20260906005030 75 292 2.6 2.6 0.00 0.00 0.00 57 1014.9
20260906004819 76 338 3.5 4.3 0.00 0.00 0.00 57 1014.9
20260906004618 76 315 2.6 3.5 0.00 0.00 0.00 57 1014.9
20260906004418 76 292 2.6 2.6 0.00 0.00 0.00 56 1014.9
20260906004207 76 292 1.7 1.7 0.00 0.00 0.00 56 1014.9
20260906004006 76 292 2.6 2.6 0.00 0.00 0.00 55 1014.9
20260906003806 76 292 1.7 1.7 0.00 0.00 0.00 54 1014.9
20260906003555 77 292 1.7 1.7 0.00 0.00 0.00 54 1014.9
20260906003354 77 292 1.7 1.7 0.00 0.00 0.00 54 1014.9
20260906003154 77 292 1.7 1.7 0.00 0.00 0.00 53 1014.9
20260906002955 77 292 3.5 4.3 0.00 0.00 0.00 54 1014.9
20260906002754 77 292 2.6 3.5 0.00 0.00 0.00 54 1014.9
20260906002554 77 292 2.6 2.6 0.00 0.00 0.00 53 1014.9
20260906002343 77 292 2.6 3.5 0.00 0.00 0.00 53 1014.9
20260906002142 77 270 2.6 2.6 0.00 0.00 0.00 54 1014.9
20260906001942 77 292 1.7 1.7 0.00 0.00 0.00 54 1014.9
20260906001731 77 292 1.7 1.7 0.00 0.00 0.00 54 1014.9
20260906001530 77 292 2.6 3.5 0.00 0.00 0.00 54 1015.9
20260906001330 77 292 2.6 3.5 0.00 0.00 0.00 54 1015.9
20260906001131 77 292 1.7 1.7 0.00 0.00 0.00 55 1015.9
20260906000930 77 292 4.3 4.3 0.00 0.00 0.00 55 1015.9
20260906000730 77 292 4.3 5.2 0.00 0.00 0.00 55 1015.9
20260906000456 77 292 3.5 3.5 0.00 0.00 0.00 54 1015.9
20260906000256 77 292 4.3 4.3 0.00 0.00 0.00 54 1015.9
20260906000054 77 315 4.3 5.2 0.00 0.00 0.00 54 1015.9
20260905235843 77 292 2.6 2.6 0.00 0.00 0.00 53 1015.9
20260905235642 77 292 5.2 5.2 0.00 0.00 0.00 54 1015.9
20260905235442 77 292 2.6 2.6 0.00 0.00 0.00 54 1015.9
20260905235243 77 315 1.7 1.7 0.00 0.00 0.00 54 1015.9
20260905235042 77 292 1.7 1.7 0.00 0.00 0.00 54 1015.9
20260905234842 77 292 2.6 2.6 0.00 0.00 0.00 54 1015.9
20260905234643 77 292 1.7 1.7 0.00 0.00 0.00 54 1015.9
20260905234442 77 292 1.7 1.7 0.00 0.00 0.00 55 1015.9
20260905234242 77 315 1.7 1.7 0.00 0.00 0.00 55 1015.9
20260905234043 78 292 3.5 4.3 0.00 0.00 0.00 55 1015.9
20260905233842 78 292 2.6 2.6 0.00 0.00 0.00 55 1015.9
20260905233642 78 292 3.5 3.5 0.00 0.00 0.00 55 1015.9
20260905233431 78 292 2.6 2.6 0.00 0.00 0.00 55 1015.9
20260905233230 78 292 1.7 1.7 0.00 0.00 0.00 55 1015.9
20260905233030 78 292 1.7 1.7 0.00 0.00 0.00 55 1015.9
20260905232831 78 292 2.6 2.6 0.00 0.00 0.00 55 1015.9
20260905232630 78 292 2.6 2.6 0.00 0.00 0.00 55 1015.9
20260905232430 78 292 2.6 2.6 0.00 0.00 0.00 55 1015.9
20260905232231 78 292 2.6 2.6 0.00 0.00 0.00 56 1015.9
20260905232030 78 292 1.7 1.7 0.00 0.00 0.00 57 1015.9
20260905231830 78 292 1.7 1.7 0.00 0.00 0.00 57 1015.9
20260905231631 78 292 3.5 3.5 0.00 0.00 0.00 57 1015.9
20260905231430 78 292 1.7 1.7 0.00 0.00 0.00 57 1015.9
20260905231230 78 292 2.6 2.6 0.00 0.00 0.00 57 1015.9
20260905231019 78 292 2.6 2.6 0.00 0.00 0.00 57 1015.9
20260905230818 78 292 3.5 3.5 0.00 0.00 0.00 58 1015.9
20260905230618 78 292 2.6 3.5 0.00 0.00 0.00 58 1015.9
20260905230419 78 292 1.7 1.7 0.00 0.00 0.00 58 1015.9
20260905230218 78 292 1.7 1.7 0.00 0.00 0.00 58 1015.9
20260905230018 78 292 2.6 2.6 0.00 0.00 0.00 59 1015.9
20260905225819 78 292 1.7 1.7 0.00 0.00 0.00 60 1015.9
20260905225618 78 292 2.6 2.6 0.00 0.00 0.00 60 1015.9
20260905225418 78 292 2.6 2.6 0.00 0.00 0.00 60 1015.9
20260905225219 78 292 2.6 2.6 0.00 0.00 0.00 60 1015.9
20260905225018 78 292 5.2 5.2 0.00 0.00 0.00 59 1015.9
20260905224818 78 292 2.6 2.6 0.00 0.00 0.00 60 1015.9
20260905224607 79 292 2.6 2.6 0.00 0.00 0.00 60 1015.9
20260905224406 79 292 1.7 1.7 0.00 0.00 0.00 60 1015.9
20260905224206 79 292 2.6 2.6 0.00 0.00 0.00 62 1015.9
20260905224007 79 292 1.7 1.7 0.00 0.00 0.00 60 1015.9
20260905223806 79 292 2.6 2.6 0.00 0.00 0.00 60 1015.9
20260905223606 79 292 1.7 1.7 0.00 0.00 0.00 60 1015.9
20260905223407 79 292 2.6 2.6 0.00 0.00 0.00 59 1015.9
20260905223206 79 292 2.6 2.6 0.00 0.00 0.00 58 1015.9
20260905223006 79 292 2.6 2.6 0.00 0.00 0.00 58 1015.9
20260905222807 79 292 1.7 1.7 0.00 0.00 0.00 57 1015.9
20260905222606 79 292 2.6 2.6 0.00 0.00 0.00 57 1015.9
20260905222406 79 292 1.7 1.7 0.00 0.00 0.00 57 1015.9
20260905222156 79 292 1.7 1.7 0.00 0.00 0.00 56 1015.9
20260905221954 79 270 2.6 2.6 0.00 0.00 0.00 56 1015.9
20260905221759 79 292 2.6 3.5 0.00 0.00 0.00 56 1015.9
20260905221555 79 270 4.3 4.3 0.00 0.00 0.00 55 1015.9
20260905221354 79 292 2.6 3.5 0.00 0.00 0.00 55 1015.9
20260905221154 79 270 1.7 1.7 0.00 0.00 0.00 55 1015.9
20260905220955 79 292 3.5 3.5 0.00 0.00 0.00 55 1015.9
20260905220754 79 292 1.7 1.7 0.00 0.00 0.00 55 1015.9
20260905220554 79 315 4.3 4.3 0.00 0.00 0.00 54 1015.9
20260905220355 79 292 4.3 4.3 0.00 0.00 0.00 54 1015.9
20260905220154 79 292 3.5 3.5 0.00 0.00 0.00 54 1015.9
20260905215954 79 292 3.5 4.3 0.00 0.00 0.00 53 1015.9
20260905215755 79 292 4.3 5.2 0.00 0.00 0.00 53 1015.9
20260905215554 79 292 4.3 4.3 0.00 0.00 0.00 53 1015.9
20260905215354 79 292 3.5 3.5 0.00 0.00 0.00 53 1015.9
20260905215155 80 292 2.6 2.6 0.00 0.00 0.00 53 1015.9
20260905214954 80 315 3.5 3.5 0.00 0.00 0.00 52 1015.9
20260905214754 80 292 4.3 4.3 0.00 0.00 0.00 53 1015.9
20260905214555 80 292 1.7 1.7 0.00 0.00 0.00 53 1015.9
20260905214354 80 292 2.6 2.6 0.00 0.00 0.00 52 1015.9
20260905214154 80 292 1.7 1.7 0.00 0.00 0.00 52 1015.9
20260905213955 80 292 3.5 3.5 0.00 0.00 0.00 52 1015.9
20260905213754 80 315 1.7 1.7 0.00 0.00 0.00 52 1015.9
20260905213554 80 270 2.6 2.6 0.00 0.00 0.00 52 1015.9
20260905213355 80 315 1.7 1.7 0.00 0.00 0.00 52 1015.9
20260905213154 80 315 1.7 1.7 0.00 0.00 0.00 52 1014.9
20260905212954 80 315 1.7 1.7 0.00 0.00 0.00 52 1014.9
20260905212755 80 315 1.7 1.7 0.00 0.00 0.00 52 1014.9
20260905212554 80 315 1.7 1.7 0.00 0.00 0.00 52 1014.9
20260905212354 80 292 2.6 2.6 0.00 0.00 0.00 52 1014.9
20260905212155 80 292 1.7 1.7 0.00 0.00 0.00 52 1014.9
20260905211954 80 315 2.6 3.5 0.00 0.00 0.00 52 1014.9
20260905211754 80 315 1.7 1.7 0.00 0.00 0.00 53 1014.9
20260905211555 80 315 1.7 1.7 0.00 0.00 0.00 53 1014.9
20260905211354 80 315 1.7 1.7 0.00 0.00 0.00 53 1015.9
20260905211154 80 315 2.6 2.6 0.00 0.00 0.00 53 1015.9
20260905210943 80 315 2.6 3.5 0.00 0.00 0.00 53 1015.9
20260905210742 80 315 4.3 4.3 0.00 0.00 0.00 53 1015.9
20260905210542 80 315 2.6 2.6 0.00 0.00 0.00 53 1015.9
20260905210343 80 315 2.6 2.6 0.00 0.00 0.00 54 1015.9
20260905210142 80 315 1.7 1.7 0.00 0.00 0.00 54 1014.9
20260905205942 80 315 3.5 4.3 0.00 0.00 0.00 54 1014.9
20260905205743 81 315 1.7 1.7 0.00 0.00 0.00 53 1014.9
20260905205542 81 315 2.6 3.5 0.00 0.00 0.00 53 1014.9
20260905205342 81 315 1.7 1.7 0.00 0.00 0.00 52 1014.9
20260905205143 81 315 4.3 4.3 0.00 0.00 0.00 52 1014.9
20260905204942 81 315 4.3 4.3 0.00 0.00 0.00 53 1014.9
20260905204743 81 338 4.3 4.3 0.00 0.00 0.00 53 1014.9
20260905204543 81 338 2.6 3.5 0.00 0.00 0.00 53 1014.9
20260905204342 81 338 1.7 1.7 0.00 0.00 0.00 53 1014.9
20260905204142 81 338 2.6 2.6 0.00 0.00 0.00 52 1014.9
20260905203943 81 338 2.6 2.6 0.00 0.00 0.00 52 1014.9
20260905203742 81 338 3.5 4.3 0.00 0.00 0.00 52 1014.9
20260905203542 81 338 4.3 4.3 0.00 0.00 0.00 52 1014.9
20260905203343 81 338 1.7 1.7 0.00 0.00 0.00 53 1014.9
20260905203142 81 338 3.5 3.5 0.00 0.00 0.00 53 1014.9
20260905202942 81 338 1.7 1.7 0.00 0.00 0.00 53 1014.9
20260905202743 81 338 2.6 3.5 0.00 0.00 0.00 54 1014.9
20260905202542 82 338 2.6 2.6 0.00 0.00 0.00 54 1014.9
20260905202342 82 338 1.7 1.7 0.00 0.00 0.00 53 1014.9
20260905202143 82 338 1.7 1.7 0.00 0.00 0.00 53 1014.9
20260905201942 82 338 1.7 1.7 0.00 0.00 0.00 53 1014.9
20260905201742 82 338 1.7 1.7 0.00 0.00 0.00 53 1014.9
20260905201543 82 338 1.7 1.7 0.00 0.00 0.00 52 1014.9
20260905201342 83 338 1.7 1.7 0.00 0.00 0.00 52 1015.9
20260905201142 83 292 2.6 2.6 0.00 0.00 0.00 52 1015.9
20260905200943 83 292 1.7 1.7 0.00 0.00 0.00 51 1015.9
20260905200742 83 292 1.7 1.7 0.00 0.00 0.00 51 1015.9
20260905200542 83 292 1.7 1.7 0.00 0.00 0.00 51 1015.9
20260905200343 83 292 1.7 1.7 0.00 0.00 0.00 51 1015.9
20260905200142 83 292 1.7 1.7 0.00 0.00 0.00 50 1015.9
20260905195942 83 292 1.7 1.7 0.00 0.00 0.00 50 1015.9
20260905195745 83 292 1.7 1.7 0.00 0.00 0.00 51 1015.9
20260905195542 83 292 2.6 2.6 0.00 0.00 0.00 51 1015.9
20260905195342 83 292 1.7 1.7 0.00 0.00 0.00 51 1015.9
20260905195143 83 292 0.9 0.9 0.00 0.00 0.00 50 1015.9
20260905194942 83 292 1.7 1.7 0.00 0.00 0.00 51 1015.9
20260905194742 83 292 3.5 3.5 0.00 0.00 0.00 51 1015.9
20260905194543 83 292 2.6 2.6 0.00 0.00 0.00 51 1015.9
20260905194342 83 292 1.7 1.7 0.00 0.00 0.00 52 1015.9
20260905194144 83 292 0.9 0.9 0.00 0.00 0.00 52 1015.9
20260905193943 83 292 2.6 2.6 0.00 0.00 0.00 52 1015.9
20260905193742 83 292 3.5 3.5 0.00 0.00 0.00 52 1015.9
20260905193542 83 292 1.7 1.7 0.00 0.00 0.00 52 1015.9
20260905193343 83 292 1.7 1.7 0.00 0.00 0.00 52 1015.9
20260905193142 83 292 1.7 1.7 0.00 0.00 0.00 52 1014.9
20260905192942 83 292 1.7 1.7 0.00 0.00 0.00 52 1014.9
20260905192743 83 292 1.7 1.7 0.00 0.00 0.00 52 1014.9
20260905192542 83 292 0.0 0.0 0.00 0.00 0.00 52 1014.9
20260905192254 83 292 2.6 2.6 0.00 0.00 0.00 52 1014.9
20260905192055 83 292 2.6 3.5 0.00 0.00 0.00 52 1014.9
20260905191854 83 292 1.7 1.7 0.00 0.00 0.00 53 1015.9
20260905191654 83 292 1.7 1.7 0.00 0.00 0.00 53 1015.9
20260905191455 83 292 2.6 2.6 0.00 0.00 0.00 53 1015.9
20260905191254 83 292 1.7 1.7 0.00 0.00 0.00 53 1015.9
20260905191054 83 292 1.7 1.7 0.00 0.00 0.00 53 1015.9
20260905190855 84 292 1.7 1.7 0.00 0.00 0.00 53 1015.9
20260905190654 84 292 1.7 1.7 0.00 0.00 0.00 53 1015.9
20260905190454 84 292 2.6 2.6 0.00 0.00 0.00 53 1015.9
20260905190255 84 292 1.7 1.7 0.00 0.00 0.00 53 1015.9
20260905190054 84 292 2.6 2.6 0.00 0.00 0.00 53 1014.9
20260905185854 84 292 1.7 1.7 0.00 0.00 0.00 52 1014.9
20260905185643 84 292 2.6 2.6 0.00 0.00 0.00 52 1014.9
20260905185442 85 292 3.5 3.5 0.00 0.00 0.00 52 1014.9
20260905185242 85 292 1.7 1.7 0.00 0.00 0.00 52 1014.9
20260905185043 85 292 0.9 0.9 0.00 0.00 0.00 52 1014.9
20260905184843 85 292 3.5 3.5 0.00 0.00 0.00 52 1014.9
20260905184630 85 292 1.7 1.7 0.00 0.00 0.00 52 1014.9
20260905184431 85 292 2.6 2.6 0.00 0.00 0.00 53 1014.9
20260905184230 85 292 2.6 2.6 0.00 0.00 0.00 53 1014.9
20260905184030 84 292 1.7 1.7 0.00 0.00 0.00 54 1014.9
20260905183831 84 270 1.7 1.7 0.00 0.00 0.00 54 1014.9
20260905183619 84 270 2.6 3.5 0.00 0.00 0.00 55 1014.9
20260905183418 84 248 3.5 4.3 0.00 0.00 0.00 56 1014.9
20260905183211 84 292 2.6 2.6 0.00 0.00 0.00 57 1014.9
20260905183006 84 292 2.6 2.6 0.00 0.00 0.00 57 1014.9
20260905182806 85 292 2.6 2.6 0.00 0.00 0.00 58 1014.9
20260905182607 85 315 1.7 1.7 0.00 0.00 0.00 58 1014.9
20260905182406 85 315 1.7 1.7 0.00 0.00 0.00 57 1014.9
20260905182206 85 315 0.9 0.9 0.00 0.00 0.00 57 1014.9
20260905182007 85 315 1.7 1.7 0.00 0.00 0.00 58 1014.9
20260905181754 85 315 0.0 0.0 0.00 0.00 0.00 58 1014.9
20260905181554 85 315 0.9 0.9 0.00 0.00 0.00 58 1014.9
20260905181355 85 315 1.7 1.7 0.00 0.00 0.00 58 1014.9
20260905181154 85 315 1.7 1.7 0.00 0.00 0.00 58 1014.9
20260905180954 85 315 1.7 1.7 0.00 0.00 0.00 58 1014.9
20260905180755 85 315 2.6 2.6 0.00 0.00 0.00 58 1014.9
20260905180554 85 338 2.6 2.6 0.00 0.00 0.00 58 1014.9
20260905180354 85 315 4.3 4.3 0.00 0.00 0.00 58 1014.9
20260905180144 85 338 2.6 2.6 0.00 0.00 0.00 58 1014.9
20260905175942 85 338 5.2 5.2 0.00 0.00 0.00 58 1013.9
20260905175742 85 338 4.3 4.3 0.00 0.00 0.00 58 1013.9
20260905175543 85 315 5.2 5.2 0.00 0.00 0.00 59 1013.9
20260905175458 85 315 1.7 1.7 0.00 0.00 0.00 61
20260905175040 86 292 4.3 4.3 0.00 0.00 0.00 60
20260905174654 86 0 2.6 2.6 0.00 0.00 0.00 60 1013.9
20260905174454 86 68 2.6 2.6 0.00 0.00 0.00 60 1013.9
20260905174255 86 68 0.9 0.9 0.00 0.00 0.00 59 1013.9
20260905174054 87 68 1.7 1.7 0.00 0.00 0.00 59 1013.9
20260905173854 87 68 1.7 1.7 0.00 0.00 0.00 59 1013.9
20260905173643 87 68 4.3 5.2 0.00 0.00 0.00 59 1013.9
20260905173442 87 68 3.5 4.3 0.00 0.00 0.00 59 1013.9
20260905173242 87 68 4.3 4.3 0.00 0.00 0.00 59 1013.9
20260905173043 87 68 3.5 4.3 0.00 0.00 0.00 55 1013.9
20260905172842 87 112 2.6 2.6 0.00 0.00 0.00 53
20260905172713 87 112 3.5 4.3 0.00 0.00 0.00 54
20260905172154 87 112 4.3 4.3 0.00 0.00 0.00 54 1013.9
20260905171956 87 135 1.7 1.7 0.00 0.00 0.00 55 1013.9
20260905171755 87 112 4.3 4.3 0.00 0.00 0.00 55 1013.9
20260905171554 88 90 4.3 4.3 0.00 0.00 0.00 56 1013.9
20260905171355 88 135 4.3 4.3 0.00 0.00 0.00 56 1013.9
20260905171155 88 158 3.5 4.3 0.00 0.00 0.00 56 1013.9
20260905170954 88 135 4.3 4.3 0.00 0.00 0.00 57 1013.9
20260905170754 88 135 5.2 5.2 0.00 0.00 0.00 56 1013.9
20260905170555 88 112 3.5 4.3 0.00 0.00 0.00 56 1013.9
20260905170354 88 158 5.2 5.2 0.00 0.00 0.00 56 1013.9
20260905170154 88 135 4.3 4.3 0.00 0.00 0.00 56 1013.9
20260905165955 88 135 1.7 1.7 0.00 0.00 0.00 56 1013.9
20260905165754 88 135 5.2 5.2 0.00 0.00 0.00 55 1013.9
20260905165554 88 112 2.6 3.5 0.00 0.00 0.00 55 1013.9
20260905165355 89 158 5.2 5.2 0.00 0.00 0.00 56 1013.9
20260905165154 89 135 7.0 7.8 0.00 0.00 0.00 55 1013.9
20260905164954 89 158 4.3 5.2 0.00 0.00 0.00 55 1013.9
20260905164755 89 135 6.1 7.0 0.00 0.00 0.00 55 1013.9
20260905164554 89 135 7.0 7.0 0.00 0.00 0.00 55 1013.9
20260905164354 89 135 5.2 6.1 0.00 0.00 0.00 54 1013.9
20260905164155 89 158 5.2 5.2 0.00 0.00 0.00 53 1013.9
20260905163954 89 158 5.2 6.1 0.00 0.00 0.00 52 1013.9
20260905163754 89 158 7.0 7.0 0.00 0.00 0.00 52 1013.9
20260905163554 89 135 7.0 7.8 0.00 0.00 0.00 52 1013.9
20260905163342 89 135 7.0 7.8 0.00 0.00 0.00 52 1013.9
20260905163142 90 158 5.2 6.1 0.00 0.00 0.00 52 1013.9
20260905162943 90 158 3.5 4.3 0.00 0.00 0.00 52 1013.9
20260905162742 90 180 5.2 5.2 0.00 0.00 0.00 51
20260905162542 90 158 3.5 4.3 0.00 0.00 0.00 50
20260905162319 90 158 6.1 7.0 0.00 0.00 0.00 50
20260905162054 90 180 5.2 6.1 0.00 0.00 0.00 50 1013.9
20260905161854 90 135 5.2 6.1 0.00 0.00 0.00 50 1013.9
20260905161655 90 180 7.0 7.8 0.00 0.00 0.00 50 1013.9
20260905161454 90 135 3.5 4.3 0.00 0.00 0.00 49 1014.9
20260905161254 90 158 7.8 7.8 0.00 0.00 0.00 48 1014.9
20260905161055 90 180 6.1 6.1 0.00 0.00 0.00 48 1014.9
20260905160854 90 158 7.8 8.7 0.00 0.00 0.00 48 1014.9
20260905160654 91 158 5.2 5.2 0.00 0.00 0.00 47 1014.9
20260905160455 91 202 6.1 6.1 0.00 0.00 0.00 46 1014.9
20260905160254 91 158 8.7 9.6 0.00 0.00 0.00 46 1013.9
20260905160054 91 158 7.8 8.7 0.00 0.00 0.00 46 1013.9
20260905155855 91 202 6.1 6.1 0.00 0.00 0.00 46 1013.9
20260905155642 92 158 7.8 8.7 0.00 0.00 0.00 45 1013.9
20260905155442 92 180 5.2 5.2 0.00 0.00 0.00 44 1013.9
20260905155243 92 180 3.5 4.3 0.00 0.00 0.00 44 1013.9
20260905155042 92 202 8.7 10.4 0.00 0.00 0.00 44 1013.9
20260905154830 92 202 9.6 9.6 0.00 0.00 0.00 43 1013.9
20260905154619 92 202 6.1 7.0 0.00 0.00 0.00 43 1013.9
20260905154418 92 158 6.1 6.1 0.00 0.00 0.00 43 1013.9
20260905154218 92 202 7.8 8.7 0.00 0.00 0.00 42 1013.9
20260905154019 92 202 8.7 8.7 0.00 0.00 0.00 43 1013.9
20260905153818 92 202 7.0 7.0 0.00 0.00 0.00 44 1013.9
20260905153618 92 202 9.6 10.4 0.00 0.00 0.00 44 1013.9
20260905153419 92 180 7.8 9.6 0.00 0.00 0.00 45 1013.9
20260905153218 92 202 8.7 9.6 0.00 0.00 0.00 45 1014.9
20260905153018 92 202 7.8 9.6 0.00 0.00 0.00 44 1014.9
20260905152818 92 180 7.8 8.7 0.00 0.00 0.00 45 1014.9
20260905152606 92 158 6.1 6.1 0.00 0.00 0.00 44 1014.9
20260905152354 92 202 7.8 8.7 0.00 0.00 0.00 44 1014.9
20260905152143 93 158 7.0 7.8 0.00 0.00 0.00 44 1014.9
20260905151942 93 202 9.6 10.4 0.00 0.00 0.00 44 1014.9
20260905151742 93 180 6.1 7.0 0.00 0.00 0.00 44 1014.9
20260905151543 93 158 7.0 7.0 0.00 0.00 0.00 44 1014.9
20260905151330 93 202 7.0 7.0 0.00 0.00 0.00 43 1013.9
20260905151118 93 158 7.0 7.8 0.00 0.00 0.00 42 1013.9
20260905150907 93 180 7.8 9.6 0.00 0.00 0.00 42 1013.9
20260905150654 93 180 6.1 7.0 0.00 0.00 0.00 42 1013.9
20260905150454 93 202 7.0 7.8 0.00 0.00 0.00 41 1013.9
20260905150242 93 180 6.1 7.0 0.00 0.00 0.00 42 1013.9
20260905150042 93 202 7.0 7.0 0.00 0.00 0.00 42 1013.9
20260905145818 93 180 7.0 7.8 0.00 0.00 0.00 41 1013.9
20260905145608 93 180 7.8 8.7 0.00 0.00 0.00 40 1013.9
20260905145330 93 202 10.4 12.2 0.00 0.00 0.00 41 1013.9
20260905145106 93 180 8.7 9.6 0.00 0.00 0.00 41 1013.9
20260905144854 93 202 9.6 9.6 0.00 0.00 0.00 41 1014.9
20260905144642 92 202 8.7 9.6 0.00 0.00 0.00 46 1014.9
20260905144431 92 158 7.0 7.0 0.00 0.00 0.00 50 1014.9
20260905144206 92 225 6.1 7.0 0.00 0.00 0.00 51 1014.9
20260905143954 92 158 7.8 7.8 0.00 0.00 0.00 50 1014.9
20260905143743 92 202 8.7 9.6 0.00 0.00 0.00 49 1014.9
20260905143530 92 112 7.0 7.8 0.00 0.00 0.00 49 1014.9
20260905143330 92 158 8.7 9.6 0.00 0.00 0.00 49 1014.9
20260905143118 92 158 8.7 9.6 0.00 0.00 0.00 50 1014.9
20260905142918 92 158 6.1 7.0 0.00 0.00 0.00 52 1014.9
20260905142718 92 158 8.7 9.6 0.00 0.00 0.00 52 1014.9
20260905142506 92 202 7.8 7.8 0.00 0.00 0.00 51 1014.9
20260905142254 92 158 6.1 7.0 0.00 0.00 0.00 52 1014.9
20260905142042 92 202 8.7 9.6 0.00 0.00 0.00 54 1014.9
20260905141842 92 158 7.0 7.8 0.00 0.00 0.00 53 1014.9
20260905141630 92 180 9.6 10.4 0.00 0.00 0.00 51 1014.9
20260905141430 92 180 7.8 9.6 0.00 0.00 0.00 54 1014.9
20260905141206 92 158 7.0 7.8 0.00 0.00 0.00 51 1014.9
20260905141006 92 202 7.8 8.7 0.00 0.00 0.00 51 1014.9
20260905140806 92 202 7.8 8.7 0.00 0.00 0.00 52 1014.9
20260905140518 93 135 7.8 8.7 0.00 0.00 0.00 52 1014.9
20260905140254 93 180 7.8 8.7 0.00 0.00 0.00 51 1014.9
20260905140054 93 180 7.0 7.8 0.00 0.00 0.00 51 1014.9
20260905135842 93 158 7.0 7.8 0.00 0.00 0.00 50 1014.9
20260905135630 93 202 6.1 7.0 0.00 0.00 0.00 50 1014.9
20260905135342 93 158 6.1 6.1 0.00 0.00 0.00 48 1014.9
20260905135106 93 180 7.8 7.8 0.00 0.00 0.00 50 1014.9
20260905134906 93 180 6.1 7.0 0.00 0.00 0.00 48 1014.9
20260905134618 93 202 7.0 7.8 0.00 0.00 0.00 48 1014.9
20260905134418 93 158 4.3 4.3 0.00 0.00 0.00 47 1014.9
20260905134218 93 202 7.8 8.7 0.00 0.00 0.00 48 1014.9
20260905134006 93 180 6.1 6.1 0.00 0.00 0.00 49 1014.9
20260905133806 93 202 7.8 8.7 0.00 0.00 0.00 50 1014.9
20260905133530 93 158 6.1 6.1 0.00 0.00 0.00 49 1014.9
20260905133318 93 158 7.0 7.0 0.00 0.00 0.00 48 1014.9
20260905133120 93 180 7.8 8.7 0.00 0.00 0.00 47 1014.9
20260905132919 93 202 7.8 8.7 0.00 0.00 0.00 47 1014.9
20260905132706 93 158 5.2 5.2 0.00 0.00 0.00 44 1014.9
20260905132506 92 202 3.5 4.3 0.00 0.00 0.00 45 1014.9
20260905132306 92 225 7.8 8.7 0.00 0.00 0.00 45 1014.9
20260905132030 92 225 3.5 4.3 0.00 0.00 0.00 48 1014.9
20260905131830 92 202 7.0 8.7 0.00 0.00 0.00 48 1014.9
20260905131630 92 158 8.7 8.7 0.00 0.00 0.00 47 1014.9
20260905131420 93 180 5.2 6.1 0.00 0.00 0.00 50 1014.9
20260905131218 93 135 7.0 7.8 0.00 0.00 0.00 48 1014.9
20260905131018 93 180 7.0 7.8 0.00 0.00 0.00 49 1014.9
20260905130806 93 135 7.0 7.8 0.00 0.00 0.00 48 1014.9
20260905130606 93 135 7.8 8.7 0.00 0.00 0.00 46 1014.9
20260905130406 93 202 6.1 6.1 0.00 0.00 0.00 45 1014.9
20260905130154 93 158 7.8 8.7 0.00 0.00 0.00 45 1014.9
20260905125954 93 180 7.0 7.0 0.00 0.00 0.00 45 1014.9
20260905125742 93 202 7.0 7.0 0.00 0.00 0.00 44 1014.9
20260905125530 93 135 7.0 7.8 0.00 0.00 0.00 44 1014.9
20260905125330 93 202 5.2 5.2 0.00 0.00 0.00 44 1014.9
20260905125118 93 158 6.1 7.0 0.00 0.00 0.00 43 1014.9
20260905124906 93 135 6.1 6.1 0.00 0.00 0.00 43 1014.9
20260905124706 94 112 6.1 7.0 0.00 0.00 0.00 44 1015.9
20260905124454 94 158 7.8 8.7 0.00 0.00 0.00 43 1015.9
20260905124242 94 180 7.8 7.8 0.00 0.00 0.00 43 1015.9
20260905124030 94 158 3.5 4.3 0.00 0.00 0.00 42 1015.9
20260905123830 94 158 7.8 8.7 0.00 0.00 0.00 42 1015.9
20260905123619 94 158 5.2 5.2 0.00 0.00 0.00 40 1015.9
20260905123418 94 180 5.2 5.2 0.00 0.00 0.00 41 1015.9
20260905123218 94 158 6.1 7.0 0.00 0.00 0.00 39 1015.9
20260905123006 94 202 4.3 4.3 0.00 0.00 0.00 39 1015.9
20260905122754 94 202 5.2 5.2 0.00 0.00 0.00 40 1015.9
20260905122554 94 158 5.2 5.2 0.00 0.00 0.00 42 1015.9
20260905122330 94 180 8.7 9.6 0.00 0.00 0.00 39 1015.9
20260905122130 94 158 5.2 6.1 0.00 0.00 0.00 38 1015.9
20260905121930 95 158 4.3 4.3 0.00 0.00 0.00 39 1015.9
20260905121721 95 158 7.0 7.0 0.00 0.00 0.00 40 1015.9
20260905121518 95 158 7.8 8.7 0.00 0.00 0.00 38 1015.9
20260905121254 95 202 7.0 7.8 0.00 0.00 0.00 37 1015.9
20260905121042 95 158 7.0 7.8 0.00 0.00 0.00 38 1015.9
20260905120842 95 135 7.0 7.8 0.00 0.00 0.00 37 1015.9
20260905120642 95 180 6.1 7.0 0.00 0.00 0.00 36 1015.9
20260905120409 95 112 5.2 5.2 0.00 0.00 0.00 36 1015.9
20260905120208 95 202 5.2 6.1 0.00 0.00 0.00 37 1015.9
20260905115954 95 135 7.0 7.8 0.00 0.00 0.00 33 1015.9
20260905115742 95 112 6.1 6.1 0.00 0.00 0.00 33 1015.9
20260905115542 95 112 5.2 5.2 0.00 0.00 0.00 33 1015.9
20260905115342 95 112 1.7 1.7 0.00 0.00 0.00 33 1015.9
20260905115130 95 90 4.3 4.3 0.00 0.00 0.00 32 1015.9
20260905114930 95 90 5.2 5.2 0.00 0.00 0.00 32 1015.9
20260905114730 95 112 0.9 0.9 0.00 0.00 0.00 32 1015.9
20260905114518 95 68 4.3 4.3 0.00 0.00 0.00 32 1015.9
20260905114318 95 68 1.7 1.7 0.00 0.00 0.00 33 1015.9
20260905114118 96 112 4.3 4.3 0.00 0.00 0.00 33 1015.9
20260905113907 96 68 5.2 6.1 0.00 0.00 0.00 33 1015.9
20260905113706 95 158 7.8 8.7 0.00 0.00 0.00 31 1015.9
20260905113506 95 68 6.1 6.1 0.00 0.00 0.00 32 1015.9
20260905113254 95 112 6.1 6.1 0.00 0.00 0.00 32 1015.9
20260905113054 95 135 7.0 7.0 0.00 0.00 0.00 32 1015.9
20260905112854 95 90 2.6 3.5 0.00 0.00 0.00 32 1015.9
20260905112642 95 158 1.7 1.7 0.00 0.00 0.00 33 1015.9
20260905112442 95 68 1.7 1.7 0.00 0.00 0.00 32 1015.9
20260905112242 95 112 5.2 6.1 0.00 0.00 0.00 32 1015.9
20260905112030 95 112 1.7 1.7 0.00 0.00 0.00 31 1015.9
20260905111830 95 135 5.2 5.2 0.00 0.00 0.00 31 1015.9
20260905111618 95 158 4.3 4.3 0.00 0.00 0.00 33 1015.9
20260905111406 95 135 4.3 4.3 0.00 0.00 0.00 33 1015.9
20260905111206 95 135 5.2 5.2 0.00 0.00 0.00 33 1015.9
20260905111006 95 135 5.2 6.1 0.00 0.00 0.00 32 1015.9
20260905110754 95 135 5.2 6.1 0.00 0.00 0.00 33 1015.9
20260905110554 95 90 7.8 8.7 0.00 0.00 0.00 33 1015.9
20260905110354 95 112 5.2 5.2 0.00 0.00 0.00 32 1015.9
20260905110142 95 112 7.0 7.8 0.00 0.00 0.00 33 1015.9
20260905105942 95 112 5.2 5.2 0.00 0.00 0.00 32 1015.9
20260905105742 95 68 4.3 5.2 0.00 0.00 0.00 34 1015.9
20260905105530 95 68 2.6 3.5 0.00 0.00 0.00 32 1015.9
20260905105330 95 68 6.1 7.0 0.00 0.00 0.00 32 1015.9
20260905105130 95 68 6.1 6.1 0.00 0.00 0.00 31 1015.9
20260905104918 95 90 5.2 5.2 0.00 0.00 0.00 33 1015.9
20260905104718 95 112 5.2 6.1 0.00 0.00 0.00 33 1015.9
20260905104518 95 135 6.1 7.0 0.00 0.00 0.00 33 1015.9
20260905104306 94 135 3.5 4.3 0.00 0.00 0.00 33 1015.9
20260905104041 94 90 7.0 7.0 0.00 0.00 0.00 33 1015.9
20260905103842 94 68 5.2 5.2 0.00 0.00 0.00 33 1015.9
20260905103631 94 112 5.2 6.1 0.00 0.00 0.00 33 1015.9
20260905103430 94 68 1.7 1.7 0.00 0.00 0.00 33 1015.9
20260905103230 94 90 4.3 4.3 0.00 0.00 0.00 33 1015.9
20260905103018 94 90 4.3 4.3 0.00 0.00 0.00 33 1015.9
20260905102818 94 45 3.5 3.5 0.00 0.00 0.00 33 1015.9
20260905102618 94 68 7.0 7.0 0.00 0.00 0.00 33 1015.9
20260905102406 94 90 0.9 0.9 0.00 0.00 0.00 34 1015.9
20260905102206 94 90 1.7 1.7 0.00 0.00 0.00 35 1015.9
20260905102005 94 112 4.3 4.3 0.00 0.00 0.00 34 1015.9
20260905101754 93 68 7.0 7.0 0.00 0.00 0.00 34 1015.9
20260905101554 93 68 7.0 7.0 0.00 0.00 0.00 34 1015.9
20260905101354 93 68 2.6 3.5 0.00 0.00 0.00 34 1015.9
20260905101142 93 68 4.3 5.2 0.00 0.00 0.00 35 1015.9
20260905100941 93 68 6.1 7.0 0.00 0.00 0.00 34 1015.9
20260905100729 93 68 1.7 1.7 0.00 0.00 0.00 35 1015.9
20260905100518 93 45 5.2 5.2 0.00 0.00 0.00 36 1015.9
20260905100306 93 68 3.5 3.5 0.00 0.00 0.00 37 1015.9
20260905100106 93 90 7.0 7.0 0.00 0.00 0.00 37 1015.9
20260905095854 93 112 4.3 4.3 0.00 0.00 0.00 37 1015.9